Location: Rochester
(43.1547°N, 77.6158°W)
Time: 07:35:26
(UTC-04:00)

Envisat - Visible Passes

Search period start: 19 July 2018 00:00
Search period end: 29 July 2018 00:00
Orbit: 764 x 766 km, 98.2° (Epoch: 19 July)

Date Brightness Start Highest point End Pass type
(mag) Time Alt. Az. Time Alt. Az. Time Alt. Az.
19 Jul 5.7 21:48:00 10° WSW 21:50:38 14° W 21:53:17 10° WNW visible
20 Jul 4.9 21:09:06 10° SSW 21:13:33 31° W 21:18:02 10° NNW visible
22 Jul 5.6 21:35:57 10° SW 21:39:21 18° W 21:42:46 10° NW visible
25 Jul 5.4 21:24:08 10° SW 21:28:04 22° W 21:32:02 10° NW visible
27 Jul 5.8 21:51:43 10° WSW 21:53:56 13° W 21:56:09 10° WNW visible
28 Jul 5.1 21:12:29 10° SSW 21:16:49 28° W 21:21:10 10° NW visible
